When you browse on this site, cookies collect data to enhance your experience and personalize the content and advertising you see.
Visit our Privacy Policy to learn more. By continuing to use the site, you agree to this use of cookies and data.
  • In Schweiz
  • Länderverzeichnis
  • Für 7 Tage
  • Wassertemperatur
  • Satellitenkarten
  • Wetterkarte
  • Widgets
  • user-avatar
    Anmelden

    Stündliche Wetter Serhiivka

    Heute, 21 Februar, Donnerstag

    Zeit Temperatur Niederschläge Wind Luftdruck Luftfeuchtigkeit
    00:00 0°C° 0 mm 4 m/S 747 mmHg 83%
    01:00 0°C° 0 mm 4 m/S 747 mmHg 86%
    02:00 +1°C° 0 mm 3 m/S 746 mmHg 91%
    03:00 +1°C° 0 mm 3 m/S 746 mmHg 92%
    04:00 +1°C° 0 mm 4 m/S 746 mmHg 94%
    05:00 +1°C° 0 mm 4 m/S 746 mmHg 95%
    06:00 +1°C° 0 mm 4 m/S 746 mmHg 90%
    07:00 +1°C° 0 mm 5 m/S 746 mmHg 86%
    08:00 +1°C° 0 mm 5 m/S 746 mmHg 82%
    09:00 +2°C° 0 mm 6 m/S 746 mmHg 73%
    10:00 +4°C° 0 mm 7 m/S 746 mmHg 64%
    11:00 +5°C° 0 mm 8 m/S 746 mmHg 55%
    12:00 +5°C° 0 mm 8 m/S 746 mmHg 56%
    13:00 +4°C° 0 mm 8 m/S 746 mmHg 56%
    14:00 +3°C° 0 mm 9 m/S 746 mmHg 57%
    15:00 +2°C° 0 mm 8 m/S 746 mmHg 57%
    16:00 +1°C° 0 mm 8 m/S 746 mmHg 58%
    17:00 0°C° 0 mm 7 m/S 747 mmHg 58%
    18:00 -1°C° 0 mm 7 m/S 747 mmHg 58%
    19:00 -2°C° 0 mm 7 m/S 747 mmHg 58%
    20:00 -2°C° 0 mm 7 m/S 748 mmHg 59%
    21:00 -3°C° 0 mm 7 m/S 748 mmHg 58%
    22:00 -3°C° 0 mm 6 m/S 748 mmHg 58%
    23:00 -4°C° 0 mm 6 m/S 748 mmHg 58%

    Morgen, 22 Februar, Freitag

    Zeit Temperatur Niederschläge Wind Luftdruck Luftfeuchtigkeit
    00:00 -4°C° 0 mm 6 m/S 748 mmHg 58%
    01:00 -4°C° 0 mm 5 m/S 749 mmHg 59%
    02:00 -5°C° 0 mm 5 m/S 749 mmHg 59%
    03:00 -5°C° 0 mm 5 m/S 749 mmHg 58%
    04:00 -5°C° 0 mm 5 m/S 749 mmHg 57%
    05:00 -5°C° 0 mm 5 m/S 749 mmHg 56%
    06:00 -4°C° 0 mm 4 m/S 749 mmHg 55%
    07:00 -4°C° 0 mm 4 m/S 749 mmHg 53%
    08:00 -4°C° 0 mm 4 m/S 749 mmHg 51%
    09:00 -4°C° 0 mm 3 m/S 749 mmHg 48%
    10:00 -2°C° 0 mm 3 m/S 749 mmHg 45%
    11:00 -2°C° 0 mm 3 m/S 749 mmHg 42%
    12:00 -3°C° 0.1 mm 2 m/S 749 mmHg 50%
    13:00 -3°C° 0.1 mm 2 m/S 749 mmHg 58%
    14:00 -3°C° 0.1 mm 2 m/S 748 mmHg 65%
    15:00 -5°C° 0.3 mm 3 m/S 748 mmHg 70%
    16:00 -5°C° 0.3 mm 3 m/S 748 mmHg 74%
    17:00 -7°C° 0.3 mm 4 m/S 748 mmHg 78%
    18:00 -7°C° 0.7 mm 5 m/S 748 mmHg 82%
    19:00 -7°C° 0.7 mm 5 m/S 749 mmHg 85%
    20:00 -9°C° 0.7 mm 6 m/S 749 mmHg 88%
    21:00 -9°C° 0.8 mm 7 m/S 749 mmHg 89%
    22:00 -11°C° 0.8 mm 7 m/S 749 mmHg 89%
    23:00 -11°C° 0.8 mm 7 m/S 749 mmHg 90%

    übermorgen, 23 Februar, Samstag

    Zeit Temperatur Niederschläge Wind Luftdruck Luftfeuchtigkeit
    00:00 -11°C° 0.6 mm 7 m/S 749 mmHg 90%
    01:00 -12°C° 0.6 mm 7 m/S 749 mmHg 90%
    02:00 -12°C° 0.6 mm 7 m/S 749 mmHg 90%
    03:00 -12°C° 0.4 mm 7 m/S 749 mmHg 90%
    04:00 -12°C° 0.4 mm 7 m/S 750 mmHg 90%
    05:00 -12°C° 0.4 mm 7 m/S 750 mmHg 90%
    06:00 -12°C° 0.2 mm 7 m/S 750 mmHg 89%
    07:00 -12°C° 0.2 mm 7 m/S 751 mmHg 88%
    08:00 -12°C° 0.2 mm 8 m/S 751 mmHg 88%
    09:00 -11°C° 0 mm 7 m/S 752 mmHg 87%
    10:00 -11°C° 0 mm 7 m/S 752 mmHg 86%
    11:00 -9°C° 0 mm 7 m/S 752 mmHg 85%
    12:00 -8°C° 0.1 mm 7 m/S 752 mmHg 86%
    13:00 -8°C° 0.1 mm 7 m/S 752 mmHg 86%
    14:00 -7°C° 0.1 mm 7 m/S 753 mmHg 87%
    15:00 -8°C° 0.4 mm 7 m/S 753 mmHg 88%
    16:00 -8°C° 0.4 mm 7 m/S 753 mmHg 89%
    17:00 -8°C° 0.4 mm 7 m/S 753 mmHg 90%
    18:00 -8°C° 0.1 mm 6 m/S 754 mmHg 90%
    19:00 -8°C° 0.1 mm 6 m/S 754 mmHg 90%
    20:00 -9°C° 0.1 mm 6 m/S 754 mmHg 90%
    21:00 -8°C° 0.1 mm 6 m/S 754 mmHg 90%
    22:00 -8°C° 0.1 mm 6 m/S 754 mmHg 91%
    23:00 -8°C° 0.1 mm 6 m/S 754 mmHg 91%

    24 Februar, Sonntag

    Zeit Temperatur Niederschläge Wind Luftdruck Luftfeuchtigkeit
    00:00 -7°C° 0 mm 5 m/S 755 mmHg 91%
    01:00 -7°C° 0 mm 5 m/S 755 mmHg 92%
    02:00 -7°C° 0 mm 4 m/S 755 mmHg 92%
    03:00 -7°C° 0 mm 4 m/S 755 mmHg 92%
    04:00 -7°C° 0 mm 4 m/S 755 mmHg 93%
    05:00 -7°C° 0 mm 4 m/S 755 mmHg 93%
    06:00 -7°C° 0 mm 4 m/S 755 mmHg 93%
    07:00 -7°C° 0 mm 4 m/S 755 mmHg 93%
    08:00 -5°C° 0 mm 4 m/S 756 mmHg 93%
    09:00 -5°C° 0 mm 4 m/S 756 mmHg 94%
    10:00 -4°C° 0 mm 3 m/S 756 mmHg 96%
    11:00 -2°C° 0 mm 3 m/S 757 mmHg 97%
    12:00 -2°C° 0 mm 3 m/S 757 mmHg 97%
    13:00 -1°C° 0 mm 3 m/S 757 mmHg 98%
    14:00 -1°C° 0 mm 2 m/S 757 mmHg 98%
    15:00 -1°C° 0 mm 2 m/S 757 mmHg 97%
    16:00 -1°C° 0 mm 2 m/S 757 mmHg 95%
    17:00 -2°C° 0 mm 2 m/S 757 mmHg 93%
    18:00 -2°C° 0 mm 2 m/S 758 mmHg 93%
    19:00 -2°C° 0 mm 2 m/S 758 mmHg 93%
    20:00 -2°C° 0 mm 2 m/S 758 mmHg 94%
    21:00 -2°C° 0 mm 3 m/S 758 mmHg 94%
    22:00 -2°C° 0 mm 3 m/S 758 mmHg 94%
    23:00 -2°C° 0 mm 3 m/S 759 mmHg 94%

    25 Februar, Montag

    Zeit Temperatur Niederschläge Wind Luftdruck Luftfeuchtigkeit
    00:00 -4°C° 0 mm 3 m/S 759 mmHg 94%
    01:00 -4°C° 0 mm 3 m/S 759 mmHg 94%
    02:00 -4°C° 0 mm 3 m/S 759 mmHg 94%
    03:00 -5°C° 0 mm 3 m/S 759 mmHg 94%
    04:00 -5°C° 0 mm 3 m/S 759 mmHg 94%
    05:00 -6°C° 0 mm 3 m/S 759 mmHg 94%
    06:00 -5°C° 0 mm 3 m/S 759 mmHg 93%
    07:00 -5°C° 0 mm 3 m/S 759 mmHg 92%
    08:00 -5°C° 0 mm 3 m/S 759 mmHg 92%
    09:00 -4°C° 0 mm 3 m/S 759 mmHg 91%
    10:00 -2°C° 0 mm 2 m/S 758 mmHg 91%
    11:00 -1°C° 0 mm 2 m/S 758 mmHg 90%
    12:00 -1°C° 0 mm 3 m/S 758 mmHg 87%
    13:00 0°C° 0 mm 3 m/S 757 mmHg 83%
    14:00 0°C° 0 mm 3 m/S 757 mmHg 79%
    15:00 0°C° 0 mm 3 m/S 756 mmHg 78%
    16:00 -1°C° 0 mm 3 m/S 755 mmHg 77%
    17:00 -1°C° 0 mm 3 m/S 755 mmHg 76%
    18:00 -2°C° 0 mm 3 m/S 754 mmHg 75%
    19:00 -2°C° 0 mm 3 m/S 754 mmHg 73%
    20:00 -4°C° 0 mm 4 m/S 753 mmHg 71%
    21:00 -4°C° 0 mm 4 m/S 753 mmHg 72%
    22:00 -5°C° 0 mm 5 m/S 752 mmHg 72%
    23:00 -5°C° 0 mm 5 m/S 751 mmHg 73%

    26 Februar, Dienstag

    Zeit Temperatur Niederschläge Wind Luftdruck Luftfeuchtigkeit
    00:00 -5°C° 0 mm 5 m/S 750 mmHg 78%
    01:00 -5°C° 0 mm 5 m/S 750 mmHg 83%
    02:00 -4°C° 0 mm 4 m/S 749 mmHg 88%
    03:00 -4°C° 0 mm 5 m/S 749 mmHg 88%
    04:00 -4°C° 0 mm 5 m/S 748 mmHg 88%
    05:00 -4°C° 0 mm 5 m/S 748 mmHg 87%
    06:00 -2°C° 0 mm 5 m/S 748 mmHg 85%
    07:00 -2°C° 0 mm 5 m/S 748 mmHg 82%
    08:00 -2°C° 0 mm 5 m/S 748 mmHg 79%
    09:00 -2°C° 0 mm 5 m/S 747 mmHg 75%
    10:00 -1°C° 0 mm 5 m/S 747 mmHg 71%
    11:00 -1°C° 0 mm 6 m/S 747 mmHg 66%
    12:00 -1°C° 0 mm 6 m/S 746 mmHg 65%
    13:00 -1°C° 0 mm 6 m/S 746 mmHg 64%
    14:00 -1°C° 0 mm 6 m/S 745 mmHg 63%
    15:00 -1°C° 0 mm 5 m/S 745 mmHg 67%
    16:00 -1°C° 0 mm 4 m/S 745 mmHg 70%
    17:00 -1°C° 0 mm 3 m/S 744 mmHg 74%
    18:00 -1°C° 0 mm 3 m/S 744 mmHg 77%
    19:00 -2°C° 0 mm 3 m/S 744 mmHg 80%
    20:00 -2°C° 0 mm 3 m/S 743 mmHg 83%
    21:00 -2°C° 0 mm 3 m/S 742 mmHg 83%
    22:00 -2°C° 0 mm 3 m/S 741 mmHg 83%
    23:00 -2°C° 0 mm 3 m/S 740 mmHg 83%
    Mehr zeigen